TimePDT,TemperatureF,Dew PointF,Humidity,Sea Level PressureIn,VisibilityMPH,Wind Direction,Wind SpeedMPH,Gust SpeedMPH,PrecipitationIn,Events,Conditions,WindDirDegrees,DateUTC
12:56 AM,43.0,34.0,71,29.75,10.0,South,12.7,-,N/A,,Mostly Cloudy,180,2013-04-07 07:56:00
1:56 AM,44.1,35.1,71,29.71,10.0,SSW,13.8,21.9,N/A,,Scattered Clouds,200,2013-04-07 08:56:00
2:56 AM,44.1,35.1,71,29.65,10.0,South,17.3,27.6,0.00,,Clear,190,2013-04-07 09:56:00
3:56 AM,45.0,35.1,68,29.64,10.0,SSW,17.3,27.6,N/A,,Scattered Clouds,200,2013-04-07 10:56:00
4:56 AM,45.0,35.1,68,29.63,10.0,SSW,8.1,-,N/A,,Mostly Cloudy,210,2013-04-07 11:56:00
5:56 AM,45.0,30.0,56,29.67,10.0,SW,13.8,21.9,N/A,,Mostly Cloudy,230,2013-04-07 12:56:00
6:56 AM,44.1,32.0,63,29.70,10.0,West,10.4,-,N/A,,Overcast,260,2013-04-07 13:56:00
7:56 AM,43.0,30.9,62,29.73,10.0,WNW,8.1,-,N/A,,Partly Cloudy,290,2013-04-07 14:56:00
8:56 AM,44.1,32.0,63,29.74,10.0,West,12.7,-,N/A,,Overcast,270,2013-04-07 15:56:00
9:56 AM,48.0,30.9,52,29.74,10.0,WSW,15.0,19.6,N/A,,Scattered Clouds,240,2013-04-07 16:56:00
10:56 AM,48.9,28.0,44,29.76,10.0,WNW,16.1,27.6,N/A,,Scattered Clouds,290,2013-04-07 17:56:00
11:56 AM,48.0,23.0,37,29.76,10.0,West,13.8,35.7,N/A,,Mostly Cloudy,270,2013-04-07 18:56:00
12:56 PM,52.0,24.1,34,29.74,10.0,West,18.4,26.5,N/A,,Mostly Cloudy,270,2013-04-07 19:56:00
1:56 PM,50.0,18.0,28,29.75,10.0,West,28.8,38.0,N/A,,Clear,270,2013-04-07 20:56:00
2:56 PM,48.9,25.0,39,29.76,10.0,West,11.5,19.6,N/A,,Partly Cloudy,270,2013-04-07 21:56:00
3:24 PM,48.2,24.8,40,29.77,10.0,West,17.3,24.2,N/A,,Mostly Cloudy,280,2013-04-07 22:24:00
3:56 PM,48.9,24.1,38,29.77,10.0,WNW,19.6,28.8,N/A,,Partly Cloudy,300,2013-04-07 22:56:00
4:56 PM,45.0,25.0,46,29.78,10.0,WNW,23.0,33.4,N/A,,Clear,300,2013-04-07 23:56:00
5:56 PM,42.1,25.0,51,29.79,10.0,NW,13.8,23.0,N/A,,Clear,310,2013-04-08 00:56:00
6:56 PM,39.9,25.0,55,29.79,10.0,WNW,18.4,26.5,N/A,,Scattered Clouds,300,2013-04-08 01:56:00
7:56 PM,37.9,25.0,60,29.81,10.0,WNW,11.5,-,N/A,,Clear,300,2013-04-08 02:56:00
8:56 PM,36.0,25.0,64,29.82,10.0,West,12.7,-,N/A,,Partly Cloudy,280,2013-04-08 03:56:00
9:56 PM,35.1,25.0,67,29.83,10.0,NW,5.8,-,N/A,,Clear,310,2013-04-08 04:56:00
10:56 PM,35.1,25.0,67,29.83,10.0,West,6.9,-,N/A,,Overcast,280,2013-04-08 05:56:00
11:56 PM,35.1,25.0,67,29.85,10.0,WNW,6.9,-,N/A,,Scattered Clouds,290,2013-04-08 06:56:00